Location: Filler
(36.7551°N, 30.4456°E)
Time: 08:33:19
(UTC+00:00)

FENGYUN 3A - Pass Details

Date: 24 September 2024
Orbit: 821 x 835 km, 98.6° (Epoch: 12 October)

Event Time Altitude Azimuth Distance (km) Brightness Sun altitude
Rises 01:03:13 0° 1° (N) 3,362 7.2 -32.7°
Reaches altitude 10° 01:05:48 10° 351° (N) 2,424 6.2 -32.2°
Enters shadow 01:06:49 15° 345° (NNW) 2,091 5.8 -32.0°
